[[{"header":{"parameterUnit":"m.s-1","parameterCategory":1,"la1":30.2991,"la2":30.254,"lo1":-89.0895,"lo2":-89.0444,"dy":0.0017,"dx":0.0017,"nx":28,"ny":28,"refTime":"2024-05-07T03:00:00:Z","depth":0,"parameterNumber":2,"parameterNumberName":"U-component_of_WINDS"},"data":[0,0,0,0,0,0,0,0,0,0,0,0,0,0,0,0,0,0,0,0,0,0,0,0,0,0,0,0,0,0,0,0,0,0,0,0,0,0,0,0,0,0,0,0,0,0,0,0,0,0,0,0,0,0,0,0,0,0,-2.1566,-2.1567,0,-2.1633,-2.1634,-2.1634,-2.1668,-2.1669,-2.1669,-2.1669,-2.1734,-2.1736,-2.1738,0,0,0,0,0,0,0,0,0,0,0,0,0,-2.1468,-2.1469,-2.1566,-2.1567,-2.1568,-2.1633,-2.1634,-2.1635,-2.1668,-2.1669,-2.1669,-2.1669,-2.1734,-2.1736,-2.1738,0,0,0,0,0,0,0,0,0,0,0,0,0,-2.152,-2.147,-2.1566,-2.1593,-2.1596,-2.1633,-2.1634,-2.1635,-2.1668,-2.1669,-2.1669,-2.1669,-2.1733,-2.1736,-2.1738,-2.1753,0,0,-2.1746,-2.1747,0,0,0,0,0,0,0,0,-2.1517,-2.1524,-2.1588,-2.1591,-2.1594,-2.1642,-2.1623,-2.1674,-2.1668,-2.1641,-2.1669,-2.1669,-2.1704,-2.1709,-2.1721,-2.1756,-2.1759,-2.1746,-2.1748,-2.1749,-2.175,0,0,0,0,0,0,0,-2.1513,-2.1521,-2.1592,-2.1589,-2.1593,-2.1601,-2.1609,-2.1633,-2.1671,-2.1643,-2.1646,-2.1653,-2.1705,-2.1718,-2.1723,-2.176,-2.1746,-2.1749,-2.175,-2.1751,-2.1812,-2.1812,0,0,0,0,0,0,-2.1506,-2.1518,-2.159,-2.1595,-2.1555,-2.1603,-2.1611,-2.1627,-2.1671,-2.1678,-2.1653,-2.1655,-2.1714,-2.172,-2.1725,-2.1746,-2.1749,-2.1751,-2.1753,-2.1812,-2.1812,-2.1812,0,0,0,0,0,0,-2.1503,-2.1512,-2.1588,-2.1557,-2.1567,-2.1604,-2.1622,-2.1628,-2.1641,-2.1679,-2.1685,-2.166,-2.1714,-2.1722,-2.1746,-2.1749,-2.1753,-2.1755,-2.1812,-2.1812,-2.1812,-2.1788,0,0,0,0,0,0,-2.15,-2.1511,-2.1517,-2.1557,-2.1569,-2.1608,-2.1622,-2.1629,-2.1646,-2.1648,-2.1686,-2.1692,-2.1715,-2.1742,-2.1749,-2.1753,-2.1757,-2.1812,-2.1812,-2.1812,-2.1789,-2.1787,-2.1786,0,0,0,0,0,-2.1497,-2.1506,-2.1517,-2.1525,-2.1577,-2.1608,-2.1615,-2.1641,-2.1646,-2.1652,-2.1677,-2.1691,-2.1748,-2.1745,-2.1752,-2.1757,-2.1812,-2.1812,-2.1812,-2.1789,-2.1788,-2.1786,0,0,0,0,0,0,-2.1464,-2.1512,-2.1524,-2.1547,-2.1573,-2.1614,-2.1622,-2.1638,-2.1663,-2.1664,-2.1695,-2.1703,-2.1725,-2.1744,-2.1739,-2.1774,-2.1782,-2.1783,-2.1761,-2.176,-2.1759,-2.1754,-2.1759,0,0,0,0,0,-2.146,-2.1482,-2.1522,-2.1538,-2.1551,-2.1584,-2.1599,-2.1617,-2.1645,-2.1656,-2.1682,-2.1708,-2.1733,-2.1747,-2.1771,-2.1792,-2.1801,-2.1799,-2.1798,-2.1796,-2.1797,-2.1811,-2.1811,-2.1813,-2.1813,-2.1813,0,0,-2.1451,-2.148,-2.1491,-2.1532,-2.1555,-2.1577,-2.1593,-2.1615,-2.1631,-2.1659,-2.1685,-2.1705,-2.1736,-2.176,-2.1771,-2.1776,-2.1799,-2.1797,-2.1795,-2.1797,-2.1811,-2.1811,-2.1811,-2.1813,-2.1813,-2.1813,0,0,-2.1445,-2.1469,-2.1486,-2.1509,-2.1543,-2.1566,-2.157,-2.1609,-2.1623,-2.165,-2.1672,-2.1691,-2.1732,-2.1754,-2.177,-2.1775,-2.179,-2.1782,-2.1775,-2.1788,-2.1788,-2.1788,-2.179,-2.1791,-2.1783,-2.1783,-2.1783,0,-2.1429,-2.1463,-2.1492,-2.1514,-2.1532,-2.1559,-2.1577,-2.1597,-2.1637,-2.1649,-2.1654,-2.1706,-2.1729,-2.1759,-2.176,-2.1773,-2.1779,-2.1778,-2.1786,-2.1786,-2.1786,-2.1789,-2.179,-2.1782,-2.1782,-2.1782,-2.1782,0,-2.1442,-2.1466,-2.1475,-2.1515,-2.1534,-2.1553,-2.1585,-2.1601,-2.1618,-2.164,-2.1667,-2.1696,-2.1727,-2.1736,-2.1752,-2.1768,-2.177,-2.178,-2.1787,-2.1784,-2.1788,-2.1789,-2.178,-2.1781,-2.1781,-2.1781,0,0,-2.1417,-2.1474,-2.1477,-2.1496,-2.1537,-2.1555,-2.1576,-2.1608,-2.1621,-2.1648,-2.1667,-2.1701,-2.1712,-2.173,-2.1749,-2.1761,-2.1764,-2.1769,-2.1771,-2.1768,-2.1785,-2.1777,-2.1778,-2.1775,-2.1775,-2.1775,-2.1782,0,-2.1417,-2.1456,-2.1484,-2.1513,-2.1535,-2.1563,-2.1581,-2.1608,-2.163,-2.1652,-2.1676,-2.17,-2.1712,-2.1723,-2.1736,-2.1761,-2.1768,-2.1761,-2.1792,-2.1793,-2.1783,-2.1779,-2.1771,-2.1776,-2.1784,-2.1784,-2.1784,0,-2.1422,-2.145,-2.1481,-2.1522,-2.1532,-2.1548,-2.158,-2.1601,-2.1633,-2.1648,-2.167,-2.169,-2.1714,-2.172,-2.1754,-2.1748,-2.1763,-2.1777,-2.1778,-2.1782,-2.1788,-2.1783,-2.1778,-2.1779,-2.1786,-2.1786,-2.1786,0,-2.1401,-2.1446,-2.1471,-2.1487,-2.1534,-2.1545,-2.1565,-2.1597,-2.1615,-2.1643,-2.1655,-2.1685,-2.1701,-2.1724,-2.1752,-2.1754,-2.1783,-2.1791,-2.1796,-2.1795,-2.18,-2.1799,-2.1798,-2.181,-2.181,-2.181,-2.181,0,-2.1399,-2.1417,-2.1463,-2.1478,-2.1499,-2.1531,-2.1552,-2.1574,-2.1603,-2.1623,-2.1649,-2.1667,-2.1703,-2.1726,-2.1748,-2.1773,-2.178,-2.1793,-2.1798,-2.179,-2.1789,-2.18,-2.18,-2.181,-2.181,-2.181,-2.181,0,-2.1378,-2.141,-2.1439,-2.1482,-2.1493,-2.1507,-2.1544,-2.156,-2.1584,-2.161,-2.1618,-2.1655,-2.1683,-2.1714,-2.1752,-2.1767,-2.1791,-2.1799,-2.178,-2.1784,-2.1787,-2.1786,-2.1792,-2.1795,-2.1805,-2.1805,-2.1805,0,-2.1374,-2.1389,-2.1435,-2.145,-2.147,-2.1495,-2.1514,-2.1547,-2.1566,-2.1604,-2.1616,-2.1647,-2.1673,-2.1717,-2.1747,-2.1777,-2.1786,-2.1786,-2.1791,-2.1783,-2.1787,-2.1785,-2.1787,-2.1785,-2.1784,-2.1784,-2.1784,0,-2.1364,-2.138,-2.1406,-2.1438,-2.1461,-2.1487,-2.1515,-2.1527,-2.1565,-2.1585,-2.1615,-2.1635,-2.1676,-2.1706,-2.174,-2.1761,-2.1779,-2.1783,-2.1785,-2.1777,-2.1766,-2.1773,-2.1777,-2.1782,-2.1782,-2.1782,-2.1782,-2.1783,-2.1352,-2.1367,-2.1402,-2.1431,-2.1456,-2.1482,-2.15,-2.1527,-2.1552,-2.1588,-2.1606,-2.1637,-2.167,-2.1718,-2.1738,-2.1762,-2.1768,-2.1771,-2.1772,-2.1773,-2.1771,-2.1763,-2.1769,-2.1769,-2.1769,-2.1769,-2.1769,0,-2.1344,-2.1368,-2.1395,-2.1434,-2.1457,-2.1473,-2.1505,-2.1523,-2.155,-2.158,-2.1606,-2.1641,-2.1671,-2.1705,-2.1737,-2.175,-2.1759,-2.1757,-2.1757,-2.1761,-2.1764,-2.1759,-2.175,-2.175,-2.175,-2.175,-2.175,-2.175,-2.1342,-2.1369,-2.1389,-2.1428,-2.1453,-2.1483,-2.15,-2.1525,-2.1549,-2.1587,-2.1613,-2.1635,-2.1667,-2.1702,-2.1731,-2.174,-2.175,-2.1746,-2.1758,-2.1759,-2.1761,-2.1762,-2.1758,-2.1748,-2.1748,-2.1753,-2.1753,-2.1753]},{"header":{"parameterUnit":"m.s-1","parameterCategory":1,"la1":30.2991,"la2":30.254,"lo1":-89.0895,"lo2":-89.0444,"dy":0.0017,"dx":0.0017,"nx":28,"ny":28,"refTime":"2024-05-07T03:00:00:Z","depth":0,"parameterNumber":3,"parameterNumberName":"V-component_of_WINDS"},"data":[0,0,0,0,0,0,0,0,0,0,0,0,0,0,0,0,0,0,0,0,0,0,0,0,0,0,0,0,0,0,0,0,0,0,0,0,0,0,0,0,0,0,0,0,0,0,0,0,0,0,0,0,0,0,0,0,0,0,6.1651,6.1651,0,6.166,6.1661,6.1661,6.1601,6.1599,6.1597,6.1596,6.1603,6.1604,6.1606,0,0,0,0,0,0,0,0,0,0,0,0,0,6.158,6.1581,6.165,6.1651,6.1651,6.166,6.1661,6.1661,6.1601,6.1599,6.1597,6.1595,6.1602,6.1604,6.1606,0,0,0,0,0,0,0,0,0,0,0,0,0,6.1602,6.1582,6.165,6.1622,6.162,6.166,6.1661,6.1661,6.1601,6.1599,6.1596,6.1594,6.1601,6.1604,6.1607,6.1674,0,0,6.1615,6.1616,0,0,0,0,0,0,0,0,6.1601,6.1605,6.1626,6.1624,6.1622,6.1627,6.1638,6.1665,6.1602,6.1608,6.1595,6.1593,6.1613,6.1614,6.1621,6.1674,6.1675,6.1615,6.1617,6.1618,6.1619,0,0,0,0,0,0,0,6.16,6.1604,6.1654,6.1627,6.1624,6.1609,6.1609,6.1643,6.1624,6.1607,6.1603,6.1605,6.1611,6.1619,6.1621,6.1675,6.1615,6.1617,6.1619,6.162,6.1788,6.179,0,0,0,0,0,0,6.1602,6.1603,6.1654,6.1655,6.1605,6.1612,6.1613,6.1628,6.1624,6.1621,6.1607,6.1602,6.1616,6.1618,6.1621,6.1702,6.1618,6.162,6.1622,6.1785,6.1788,6.1791,0,0,0,0,0,0,6.1601,6.1607,6.1654,6.1628,6.1633,6.1616,6.1633,6.1629,6.1637,6.1624,6.162,6.1619,6.1614,6.1617,6.1663,6.1702,6.1621,6.1624,6.1782,6.1786,6.179,6.1864,0,0,0,0,0,0,6.1599,6.1607,6.1632,6.1629,6.1634,6.1695,6.1636,6.1631,6.1642,6.1636,6.1634,6.1631,6.1612,6.1659,6.1665,6.1704,6.1626,6.1778,6.1783,6.1789,6.1858,6.187,6.1881,0,0,0,0,0,6.1597,6.1651,6.1634,6.164,6.1665,6.1697,6.17,6.1678,6.1646,6.1671,6.1664,6.1631,6.1697,6.1664,6.1671,6.1711,6.1775,6.1782,6.1788,6.1853,6.1868,6.188,0,0,0,0,0,0,6.1656,6.165,6.163,6.1685,6.1693,6.1687,6.1718,6.1694,6.1709,6.1702,6.1673,6.1673,6.1724,6.1722,6.1685,6.1778,6.173,6.1739,6.1777,6.1791,6.1803,6.1802,6.1628,0,0,0,0,0,6.1677,6.1703,6.1696,6.1745,6.175,6.1734,6.1747,6.173,6.1735,6.1737,6.1732,6.1739,6.1761,6.1776,6.1795,6.1858,6.1858,6.1889,6.19,6.191,6.1917,6.1953,6.1967,6.1813,6.1813,6.1812,0,0,6.1717,6.1717,6.1735,6.1757,6.1761,6.179,6.1736,6.1768,6.179,6.1742,6.1785,6.1782,6.1788,6.1843,6.1866,6.1842,6.196,6.1918,6.1926,6.1928,6.1961,6.1976,6.1989,6.1817,6.1816,6.1815,0,0,6.1806,6.1808,6.1851,6.1857,6.1864,6.1854,6.1865,6.1864,6.1861,6.1904,6.187,6.1895,6.1933,6.194,6.1948,6.2046,6.2017,6.2053,6.2112,6.2147,6.216,6.217,6.2207,6.222,6.206,6.206,6.206,0,6.1855,6.1898,6.1876,6.1912,6.1923,6.1884,6.1929,6.1935,6.1948,6.1957,6.193,6.198,6.1981,6.2038,6.2063,6.207,6.2082,6.2052,6.216,6.217,6.218,6.2214,6.2228,6.2064,6.2064,6.2064,6.2063,0,6.196,6.199,6.2024,6.204,6.2056,6.2095,6.208,6.2099,6.2082,6.2075,6.2121,6.2121,6.2142,6.2154,6.2136,6.221,6.2195,6.2165,6.2116,6.2199,6.2232,6.2244,6.2071,6.2069,6.2068,6.2067,0,0,6.2083,6.2091,6.2103,6.2112,6.212,6.2143,6.2182,6.2204,6.2222,6.2233,6.2266,6.2302,6.2275,6.2284,6.2267,6.2298,6.2379,6.2264,6.2264,6.2287,6.2463,6.2487,6.2502,6.2361,6.2363,6.2365,6.2463,0,6.2172,6.224,6.2223,6.2291,6.232,6.2286,6.2321,6.233,6.2325,6.235,6.2344,6.2371,6.2332,6.2339,6.2368,6.2363,6.2414,6.2355,6.2392,6.2393,6.2392,6.2518,6.2542,6.2635,6.2475,6.2477,6.2479,0,6.2283,6.2302,6.2374,6.2381,6.2392,6.2424,6.2445,6.2469,6.2479,6.2474,6.2487,6.2465,6.2505,6.2458,6.2513,6.2474,6.2488,6.2489,6.2492,6.2494,6.2441,6.2525,6.2663,6.2678,6.2498,6.2497,6.2495,0,6.2369,6.2412,6.2461,6.247,6.2478,6.2502,6.2506,6.2514,6.253,6.2549,6.2559,6.2581,6.2593,6.2611,6.2597,6.2563,6.2655,6.2606,6.2653,6.2653,6.2673,6.2672,6.2816,6.2682,6.2681,6.2681,6.2681,0,6.2469,6.2515,6.2501,6.2531,6.2582,6.2563,6.2614,6.2614,6.2623,6.2653,6.2624,6.2653,6.2632,6.2659,6.2648,6.2697,6.2702,6.27,6.2696,6.2703,6.2703,6.2711,6.2705,6.2685,6.2684,6.2683,6.2683,0,6.2572,6.2565,6.2617,6.2622,6.2625,6.2663,6.2667,6.2696,6.2691,6.2731,6.2739,6.2731,6.2762,6.275,6.2782,6.2775,6.2838,6.2825,6.2835,6.2832,6.288,6.2876,6.3035,6.3056,6.2907,6.2909,6.291,0,6.2637,6.2672,6.2683,6.2703,6.271,6.2741,6.2759,6.2743,6.2762,6.2779,6.2806,6.2836,6.2858,6.291,6.2907,6.2933,6.2921,6.2975,6.2925,6.2931,6.2924,6.2922,6.2926,6.2985,6.2987,6.2988,6.2989,0,6.2754,6.275,6.2776,6.2804,6.2826,6.2845,6.2862,6.288,6.2865,6.2888,6.2921,6.2939,6.2975,6.3005,6.3029,6.3033,6.301,6.3006,6.3018,6.3025,6.303,6.303,6.2864,6.3002,6.3001,6.3,6.2999,6.2998,6.2841,6.2872,6.2886,6.2917,6.293,6.2948,6.2976,6.2977,6.3005,6.3034,6.3023,6.3062,6.3074,6.3104,6.3113,6.3143,6.3122,6.3139,6.3144,6.3149,6.3156,6.3026,6.3147,6.3147,6.3146,6.3146,6.3146,0,6.2957,6.2966,6.2996,6.3023,6.3048,6.3027,6.3046,6.3068,6.3104,6.3118,6.3143,6.3183,6.3213,6.3214,6.3242,6.3267,6.3257,6.3275,6.3273,6.3275,6.3172,6.3159,6.3283,6.3283,6.3283,6.3283,6.3282,6.3282,6.3021,6.3073,6.3072,6.313,6.3138,6.3178,6.3191,6.3208,6.322,6.3267,6.3293,6.3294,6.3304,6.3334,6.3361,6.3361,6.3373,6.3396,6.3391,6.3295,6.3282,6.3269,6.3256,6.3398,6.3398,6.3492,6.3492,6.3493]}]]